Theta_e
298 298 298 298 297 297 297 297 296 296 296 296 296 296 296 296 296 297 297 297 297 297 297 298 298 298 298 299 299 299 299 299 299 298 298 298 298 297 297 297 296 295
298 298 298 297 297 296 296 296 296 295 295 294 294 294 295 295 295 296 296 296 296 296 296 296 297 297 297 297 297 297 297 297 297 297 297 297 297 297 297 297 296 296
297 297 296 296 295 295 295 295 295 294 294 293 293 293 293 293 294 294 294 295 295 295 295 295 295 296 296 296 296 296 296 296 296 296 296 296 296 296 296 296 296 296
295 295 294 294 293 293 293 293 293 292 291 291 290 290 291 291 292 292 292 292 292 293 293 293 293 294 294 294 294 294 294 294 294 294 295 295 295 295 295 295 295 295
293 292 292 291 291 291 291 290 289 289 289 288 288 288 288 289 290 290 290 290 290 290 290 291 291 290 290 290 290 290 289 289 289 290 291 291 291 292 293 293 294 294
291 290 289 289 289 289 288 288 287 287 286 286 286 286 286 286 287 287 288 288 288 287 287 288 289 289 288 288 287 286 285 284 284 285 286 287 288 289 290 291 292 292
289 288 287 287 287 286 286 286 285 285 284 285 284 284 284 284 284 284 285 286 287 286 284 285 287 288 288 288 286 285 283 282 282 283 283 285 286 287 288 289 289 290
288 287 286 286 285 285 284 284 284 284 284 283 283 282 283 282 282 282 282 283 284 285 283 282 284 287 288 288 286 284 282 282 282 282 282 283 284 285 286 287 287 287
287 287 286 285 284 283 283 283 283 283 283 282 281 281 281 281 281 281 281 281 281 282 282 281 282 283 285 286 285 283 282 283 282 282 282 282 283 284 284 285 285 285
286 286 285 284 283 282 281 281 282 282 282 281 281 281 281 280 280 280 280 280 280 280 281 280 281 282 282 283 283 282 282 283 283 282 281 281 282 282 283 283 283 283
284 284 284 284 283 282 281 280 281 281 281 281 280 280 279 279 279 279 279 279 279 279 279 279 280 281 282 281 281 282 282 282 282 281 280 279 280 281 281 281 281 281
282 282 283 283 282 282 281 280 279 279 280 280 279 279 278 278 278 278 278 278 278 278 278 278 279 281 281 281 281 281 281 282 282 281 279 278 278 279 280 280 280 280
280 280 281 281 281 280 280 279 278 279 279 279 278 278 277 277 277 277 277 277 277 277 277 277 278 280 281 281 280 281 281 281 281 280 278 278 278 279 279 279 280 280
279 279 279 279 279 279 279 278 278 278 278 278 278 277 277 276 277 277 277 277 276 276 277 276 277 279 280 280 280 280 281 281 280 278 277 277 278 279 279 279 279 280
278 278 278 278 278 278 278 278 277 277 277 277 277 277 276 276 276 276 276 276 276 276 276 276 276 278 280 280 280 280 280 280 279 277 277 277 278 278 279 279 279 279
277 277 278 278 278 277 277 277 277 276 276 276 276 276 276 275 275 275 275 275 275 275 275 275 275 277 279 279 279 280 280 280 279 277 277 277 278 278 278 278 277 277
277 277 277 277 276 276 276 276 276 276 276 276 276 275 275 275 274 274 274 274 274 274 274 274 274 276 278 278 279 279 279 279 278 277 277 277 277 277 277 276 275 275
276 276 276 276 275 275 275 275 275 275 275 275 275 274 274 274 274 273 273 273 273 273 273 273 273 275 277 277 278 278 279 279 277 276 277 276 276 275 275 274 274 274
276 275 275 275 275 275 275 275 275 275 274 274 274 274 274 273 273 273 273 272 272 272 273 272 272 274 276 276 277 278 279 278 276 275 275 275 274 274 273 274 274 274
275 275 275 275 275 275 275 274 274 274 274 273 273 273 273 273 273 273 272 272 272 272 272 272 272 273 275 276 277 277 277 276 274 274 274 273 273 273 273 273 273 273
275 274 274 274 274 274 274 274 273 273 273 273 273 273 272 272 272 272 271 271 271 271 271 271 271 272 274 275 275 275 275 274 273 272 272 272 272 272 272 272 272 271
274 273 273 273 273 273 273 273 272 272 272 272 272 272 271 271 271 271 271 271 271 270 270 270 270 272 273 274 274 274 274 272 271 271 271 271 271 271 271 270 270 270
273 272 272 272 272 272 272 272 271 271 271 271 271 271 270 270 270 270 270 270 270 270 270 270 270 271 272 272 273 273 272 271 271 271 270 270 270 269 269 269 269 269
272 272 271 271 271 270 270 271 270 270 270 270 270 270 269 269 269 269 269 269 269 269 269 270 270 270 270 271 271 271 271 271 270 269 269 269 268 268 268 267 267 267
271 271 270 270 270 269 269 270 269 269 269 269 269 269 268 268 269 269 269 269 269 268 268 269 269 268 269 270 269 270 271 270 269 268 268 268 267 267 267 267 267 267
270 270 269 269 269 268 268 269 269 268 268 268 268 268 268 268 268 268 268 268 268 268 268 268 268 267 268 268 268 269 270 269 268 267 267 267 267 266 266 266 266 266
Wind_Speed
23 23 23 24 24 24 24 24 25 26 27 27 27 27 26 26 25 24 23 23 22 22 22 21 20 20 19 18 17 17 17 17 18 19 19 19 19 19 19 18 17 16
23 23 24 24 25 25 25 26 26 27 28 28 28 28 27 27 26 26 26 25 24 24 24 23 23 23 23 22 21 21 21 20 21 22 22 21 21 21 21 20 19 19
25 25 26 27 27 27 27 27 28 28 29 29 29 30 29 29 28 28 28 28 28 27 26 26 25 25 25 25 24 24 24 25 25 25 25 24 24 24 24 23 22 22
27 27 28 28 28 28 28 28 29 29 30 30 31 31 31 30 30 30 31 31 31 31 29 29 29 28 28 27 27 27 27 27 26 26 25 26 26 26 26 25 25 25
28 28 28 28 28 29 29 30 31 30 31 31 31 31 32 32 32 32 33 33 33 33 32 31 31 31 31 31 30 31 31 30 29 28 28 28 28 27 27 27 27 28
28 29 29 29 29 30 30 31 31 31 31 31 31 32 32 32 33 33 33 33 33 34 34 33 33 33 33 32 33 33 33 34 32 31 31 31 30 29 28 28 28 29
29 29 29 29 30 30 31 31 30 31 31 31 31 32 32 33 33 33 32 32 32 33 34 34 33 33 32 32 34 34 34 34 34 33 33 32 31 31 31 30 29 29
29 29 29 29 30 30 30 30 30 30 30 30 31 31 31 32 32 32 32 31 31 31 32 33 33 32 31 31 32 34 34 34 34 34 33 32 32 32 31 30 30 29
29 28 28 29 30 30 30 29 29 29 28 29 31 31 31 32 31 31 32 31 31 30 30 31 32 31 31 30 30 32 33 32 32 32 32 31 31 30 30 30 30 29
28 27 27 28 29 29 29 29 28 28 28 28 30 30 31 31 31 31 32 32 31 30 28 29 30 31 31 30 29 30 31 30 31 31 30 30 29 29 29 29 29 29
27 27 27 27 27 27 27 27 27 28 28 28 29 30 30 31 31 31 32 31 30 29 28 28 28 29 30 30 29 29 29 29 29 30 30 30 28 28 28 29 29 29
27 26 26 26 25 25 25 26 27 27 28 28 28 28 30 30 30 30 30 30 28 27 27 27 27 28 28 29 29 29 28 27 26 27 29 29 28 27 27 27 28 29
26 26 25 25 24 24 24 25 26 27 27 27 26 27 29 30 30 29 28 28 27 26 25 25 26 26 27 28 28 28 28 26 25 26 27 28 27 26 25 25 26 26
25 25 25 25 24 24 24 25 25 25 25 25 26 26 27 28 28 28 27 27 27 25 24 24 25 26 27 28 28 28 27 25 25 26 28 27 26 25 24 24 25 25
24 25 25 24 24 24 24 24 24 24 24 25 25 25 25 26 27 27 28 28 28 27 25 25 26 26 26 27 27 27 27 25 25 27 28 27 26 25 25 24 24 25
24 25 25 24 24 24 23 23 23 23 23 24 24 24 24 25 26 27 27 28 28 28 27 27 27 25 25 26 26 26 26 24 24 26 26 26 25 25 25 24 25 27
24 24 24 24 23 22 22 22 22 22 24 24 23 24 23 24 26 26 26 26 26 26 26 26 26 25 25 26 26 25 26 24 23 24 24 23 23 24 24 25 27 28
22 22 22 22 21 21 21 22 23 23 24 24 23 23 23 25 26 26 25 25 25 25 25 25 26 25 25 27 27 27 27 23 22 23 23 21 22 23 23 25 26 26
21 21 21 21 21 21 21 22 23 24 24 24 23 23 24 26 26 26 25 25 26 26 25 25 26 25 26 27 26 27 27 23 21 23 22 21 22 23 23 24 24 24
19 20 20 20 20 20 21 22 23 22 22 22 22 23 24 26 27 26 26 26 25 25 24 24 25 24 24 25 25 26 26 22 20 21 21 21 22 22 22 22 23 23
18 18 18 18 19 20 20 21 21 21 21 22 22 22 22 23 24 24 23 23 23 23 22 22 23 22 22 23 25 27 26 21 19 20 20 20 20 19 19 20 21 22
17 16 16 17 18 19 20 20 20 20 20 20 21 20 20 20 20 20 19 19 19 20 20 21 21 20 21 23 25 26 25 21 19 19 18 18 18 19 18 19 20 22
16 16 16 16 17 18 19 18 18 18 18 19 19 18 18 18 18 17 17 17 17 18 19 20 19 19 21 23 24 26 26 22 19 18 17 18 19 19 19 18 19 20
15 15 14 15 16 17 17 16 16 16 16 16 16 16 16 16 16 16 15 15 17 18 19 18 17 18 20 22 24 27 26 22 20 19 19 20 20 20 19 19 18 19
14 13 12 13 14 15 15 14 14 14 15 16 15 14 16 16 14 14 14 14 16 18 18 16 17 18 19 21 25 27 25 23 21 20 20 21 21 20 20 19 18 19
13 12 11 12 13 13 13 12 12 14 15 15 14 14 15 14 13 13 13 14 15 16 15 15 16 16 18 23 25 25 25 24 21 20 21 23 22 21 21 19 19 19
Wind_Direction
70 69 67 65 63 60 58 56 54 52 50 47 46 45 43 41 39 39 40 39 37 36 34 32 30 27 26 24 21 19 18 19 18 16 17 18 15 12 10 6 359 352
72 71 70 68 66 63 61 59 57 55 53 50 49 48 47 46 44 43 44 44 43 41 38 36 35 33 32 31 30 28 25 22 18 16 16 17 16 14 13 10 7 4
72 71 70 68 67 65 64 62 60 59 56 54 52 51 50 49 49 49 49 48 48 46 43 41 39 37 36 35 34 34 32 28 24 20 19 20 18 15 13 9 7 7
72 71 70 69 68 67 66 64 62 59 57 55 53 52 51 50 51 51 50 49 48 47 45 43 41 40 38 37 37 37 36 33 29 25 24 26 23 19 16 11 7 8
74 72 71 69 68 66 65 63 60 58 56 55 53 52 51 50 50 49 48 47 46 45 44 42 40 39 38 37 37 35 33 31 28 26 26 27 26 24 20 15 12 10
75 73 71 68 67 65 63 61 59 57 55 53 52 51 50 49 49 47 46 45 44 42 40 39 38 36 34 33 33 31 29 26 24 24 24 22 22 22 21 18 15 12
76 73 70 68 66 64 63 61 59 58 56 54 53 51 49 49 48 47 46 45 44 41 38 37 36 34 32 29 27 26 24 23 22 22 21 19 17 17 17 15 12 11
76 73 71 69 66 64 63 61 59 58 56 55 54 51 49 48 47 45 45 44 44 40 36 34 34 34 31 27 23 21 20 20 19 19 18 16 15 13 11 11 9 7
77 74 72 69 66 64 62 61 60 58 56 55 53 50 48 47 45 43 43 43 42 40 36 32 31 32 31 27 21 17 17 17 16 16 15 13 11 9 7 6 4 2
78 75 73 69 65 62 60 60 59 57 55 53 51 48 46 45 43 41 40 40 39 38 35 30 29 29 28 25 20 16 15 14 12 12 12 10 8 5 4 3 1 358
78 76 73 70 66 63 60 59 58 56 54 52 49 46 44 42 41 39 38 38 36 34 32 29 26 26 24 21 18 15 14 12 10 9 7 6 4 2 1 360 358 356
77 75 74 72 69 66 61 58 57 56 54 52 48 45 42 40 39 38 36 36 35 33 30 27 26 25 21 17 14 13 12 10 8 5 3 1 1 0 359 357 358 357
78 76 75 74 71 68 64 59 57 55 53 52 48 45 41 38 37 36 35 34 33 32 30 26 26 24 19 15 12 10 9 8 5 2 359 359 359 359 358 356 358 360
79 77 76 74 71 68 65 60 57 55 53 51 47 45 41 37 35 34 32 31 30 29 28 24 25 24 17 12 9 8 7 5 2 359 357 357 359 359 359 360 2 3
79 77 75 72 69 66 63 59 57 54 52 49 46 44 39 36 34 32 29 27 25 25 24 22 23 22 14 9 7 5 5 2 358 357 357 357 358 359 1 3 3 0
77 75 72 69 66 64 60 57 55 51 49 47 44 41 37 32 31 30 28 24 22 21 20 18 20 18 10 6 6 4 2 360 356 356 358 359 359 359 0 359 356 351
75 72 69 67 64 61 59 55 51 48 45 43 39 36 32 29 27 27 26 22 20 19 16 15 16 13 5 3 5 3 360 357 356 356 359 1 1 359 356 351 348 346
74 70 67 65 61 58 56 50 47 44 40 38 36 31 27 25 24 23 22 19 18 16 14 12 11 8 3 2 2 1 359 358 358 359 359 359 358 355 351 347 345 345
75 70 66 63 59 55 52 48 44 41 37 35 32 27 23 21 20 19 18 16 15 13 11 8 8 5 1 0 1 1 1 1 358 357 356 353 352 350 347 347 346 346
74 69 64 61 57 53 49 46 42 39 35 32 28 24 21 18 15 14 14 12 11 10 6 4 4 2 359 0 2 0 359 358 355 353 352 349 347 348 348 349 350 349
73 68 62 58 55 51 47 45 41 36 32 28 26 23 19 15 13 12 10 10 8 6 3 1 1 1 0 1 0 358 357 358 355 352 350 348 349 352 353 352 351 350
73 67 59 56 53 49 46 43 38 34 30 24 23 20 16 13 11 9 8 6 4 3 0 359 0 2 2 0 360 359 359 359 355 351 351 354 356 356 356 354 352 351
72 67 57 55 53 47 45 42 35 32 28 22 20 17 12 8 6 7 7 2 1 1 359 359 4 6 2 0 1 1 358 356 354 355 357 356 355 354 352 351 350 350
72 67 56 55 54 47 44 41 34 30 25 21 20 14 7 6 4 2 3 2 1 1 0 2 4 1 0 2 2 359 358 358 358 358 356 352 349 349 348 347 346 346
76 69 57 56 55 48 46 41 32 28 24 21 21 11 5 7 5 359 360 1 0 1 3 2 358 357 2 3 360 359 1 2 359 356 352 348 346 345 344 345 347 347
78 71 59 57 53 46 47 44 31 26 25 21 15 8 6 6 3 1 2 0 358 358 358 358 358 360 2 359 358 360 1 360 358 356 350 345 343 343 342 344 347 348